This is the latest recevied weather packets stored in our database for station/object OE6PLD-13. If no packets are shown the sender has not sent any weather packets the latest 10 day(s).
| Time | Temp. | Humidity | Pressure | Rain* | Wind** | Luminosity | Snow |
|---|---|---|---|---|---|---|---|
| 1778162286 | 21.67° C | 53% | 1012.4 hPa | 0.76 mm | - | 289 W/m² | - |
| 1778162103 | 21.67° C | 51% | 1012.6 hPa | 0.76 mm | - | 265 W/m² | - |
| 1778161920 | 22.22° C | 51% | 1012.3 hPa | 0.76 mm | - | 259 W/m² | - |
| 1778161736 | 22.22° C | 51% | 1012.3 hPa | 0.76 mm | - | 251 W/m² | - |
| 1778161552 | 21.67° C | 52% | 1012.6 hPa | 0.76 mm | - | 225 W/m² | - |
| 1778161369 | 21.67° C | 52% | 1012.4 hPa | 0.76 mm | - | 239 W/m² | - |
| 1778161186 | 21.67° C | 52% | 1012.3 hPa | 0.76 mm | - | 250 W/m² | - |
| 1778161002 | 21.67° C | 54% | 1012.8 hPa | 0.76 mm | - | 222 W/m² | - |
| 1778160819 | 21.67° C | 53% | 1012.6 hPa | 0.76 mm | - | 213 W/m² | - |
| 1778160635 | 22.22° C | 53% | 1012.7 hPa | 0.76 mm | - | 265 W/m² | - |
| 1778160452 | 21.67° C | 52% | 1012.6 hPa | 0.76 mm | - | 281 W/m² | - |
| 1778160269 | 22.22° C | 53% | 1012.6 hPa | 0.76 mm | - | 207 W/m² | - |
| 1778160085 | 22.78° C | 53% | 1012.5 hPa | 0.76 mm | - | 333 W/m² | - |
| 1778159902 | 23.33° C | 52% | 1012.6 hPa | 0.76 mm | - | 264 W/m² | - |
| 1778159719 | 22.78° C | 51% | 1012.8 hPa | 0.76 mm | - | 340 W/m² | - |
| 1778159535 | 22.22° C | 52% | 1012.5 hPa | 0.76 mm | - | 586 W/m² | - |
| 1778159352 | 22.22° C | 52% | 1012.7 hPa | 0.76 mm | - | 574 W/m² | - |
| 1778159168 | 22.22° C | 53% | 1012.8 hPa | 0.76 mm | - | 294 W/m² | - |
| 1778158985 | 22.22° C | 53% | 1012.7 hPa | 0.76 mm | - | 206 W/m² | - |
| 1778158802 | 22.22° C | 53% | 1012.7 hPa | 0.76 mm | - | 457 W/m² | - |
| 1778158618 | 23.33° C | 51% | 1012.8 hPa | 0.76 mm | - | 195 W/m² | - |
| 1778158435 | 23.33° C | 52% | 1013 hPa | 0.76 mm | - | 622 W/m² | - |
| 1778158252 | 22.78° C | 52% | 1012.9 hPa | 0.76 mm | - | 579 W/m² | - |
| 1778158068 | 21.67° C | 55% | 1013 hPa | 0.76 mm | - | 647 W/m² | - |
| 1778157885 | 22.22° C | 54% | 1013 hPa | 0.76 mm | - | 218 W/m² | - |
* Rain latest hour (hover to see other rain measurements)
** Current wind speed in m/s (hover to see current wind gust speed)